Location: Gettysburg
(39.8310°N, 77.2310°W)
Time: 08:20:40
(UTC-04:00)

Envisat - Pass Details

Date: 31 May 2023
Orbit: 763 x 764 km, 98.2° (Epoch: 21 September)

Event Time Altitude Azimuth Distance (km) Brightness Sun altitude
Rises 03:42:24 0° 33° (NNE) 3,234 7.9 -18.4°
Reaches altitude 10° 03:45:48 10° 57° (ENE) 2,303 6.6 -18.0°
Maximum altitude 03:48:35 15° 91° (E) 1,990 5.6 -17.6°
Drops below altitude 10° 03:51:21 10° 124° (SE) 2,294 5.5 -17.3°
Sets 03:54:42 0° 148° (SSE) 3,215 6.0 -16.9°
